Lid_Strength_Index
0 -0 -0 -0 -0 -1 -0 -0 -1 -1 -1 -0 -0 -0 -0 0 -0 -0 0 0 0 0 0 0 1 0 1 0 0 0 1 1 3 2 1 -0 -0 0 -0 -1 -1 -1 -0
1 1 0 -0 -0 -0 -0 -0 -1 -0 -1 -0 -0 -0 -0 -0 -0 0 1 0 1 1 1 1 1 1 1 1 1 1 1 1 2 3 1 1 1 -0 -0 0 0 -0 -0
0 0 -0 -0 -0 -0 -0 -0 -1 -0 -0 -0 -0 0 0 0 0 -0 0 0 1 1 1 1 1 1 1 1 1 1 1 1 1 2 2 1 1 0 1 0 0 -0 -0
1 1 1 0 0 0 -0 -0 -0 -0 -0 -0 -0 0 0 -0 -0 0 0 0 0 0 0 0 1 1 1 1 1 1 1 1 1 2 2 2 1 0 1 2 2 1 1
1 1 1 1 0 1 0 -0 -0 -0 -0 0 0 0 0 -0 1 0 0 0 0 1 0 0 0 1 1 1 1 1 1 2 2 2 2 2 2 2 2 1 2 2 1
1 1 1 1 1 0 0 -0 0 0 0 1 1 1 0 1 3 5 4 2 2 1 1 1 0 1 1 1 2 2 1 1 2 2 2 3 2 2 2 2 2 3 4
1 1 1 1 1 1 1 1 1 0 0 1 1 1 2 2 6 8 8 6 6 5 4 3 2 2 2 0 1 3 3 3 2 1 2 2 2 1 1 2 2 2 3
1 2 2 2 2 3 3 3 1 1 2 3 4 5 6 7 10 10 9 9 9 8 8 7 5 4 4 3 2 1 1 1 1 1 1 1 0 0 1 1 1 2 2
2 3 3 3 4 3 3 3 4 5 6 7 8 10 11 10 10 11 10 10 10 9 9 9 9 8 8 9 7 6 4 2 4 5 5 5 6 6 3 1 2 3 4
3 4 4 3 4 5 6 7 7 9 11 12 11 11 10 9 10 11 10 8 8 8 8 8 8 9 10 10 8 7 6 4 4 3 1 3 5 3 7 0 1 4 4
4 4 4 6 7 8 9 10 12 13 13 13 12 11 10 9 9 10 10 9 8 8 9 8 7 8 10 11 10 7 6 4 4 3 2 2 1 0 0 0 0 1 3
5 7 8 9 10 12 13 13 13 14 14 13 13 12 11 9 9 8 9 9 8 8 8 8 7 9 9 11 10 9 9 8 4 4 4 4 2 1 1 0 0 0 0
9 10 11 13 14 13 13 14 14 14 14 14 12 12 11 9 8 8 9 9 9 8 8 9 9 9 10 10 11 10 9 5 4 4 3 2 1 1 0 0 0 0 -0
12 13 14 15 13 13 14 14 14 14 14 13 12 12 11 10 9 9 8 7 9 8 9 8 9 8 9 8 8 7 4 3 3 2 2 1 1 1 1 1 2 2 3
15 15 15 15 15 15 14 14 14 12 12 12 12 12 12 12 11 10 10 9 10 10 11 9 7 7 7 6 4 2 1 1 2 2 2 2 2 2 2 1 1 4 3
16 16 16 16 16 15 14 13 12 11 11 12 12 12 12 12 12 12 11 12 12 12 11 10 7 7 6 5 3 2 2 3 2 2 2 2 2 2 2 2 2 3 4
17 17 17 16 15 14 14 13 13 12 11 11 12 12 12 12 11 12 12 12 12 12 11 9 7 6 4 3 2 2 2 2 1 2 2 2 2 2 3 4 3 2 3
16 16 16 15 14 13 13 13 13 14 13 11 10 10 11 11 11 12 12 12 12 11 11 9 6 4 3 2 3 2 2 2 2 2 2 2 2 2 3 3 2 3 3
16 16 15 15 14 13 12 12 12 11 10 10 9 10 10 11 11 12 12 12 11 10 8 7 5 4 2 2 2 2 2 2 2 2 2 2 2 2 2 2 3 6 5
16 15 15 14 14 12 11 11 11 11 11 10 9 10 10 10 10 11 11 11 10 8 7 5 3 2 2 1 2 2 2 2 2 2 2 2 2 2 3 3 2 2 2
15 15 15 14 14 13 11 11 12 12 12 11 9 9 13 11 10 10 10 10 8 7 4 3 3 2 2 2 2 2 2 2 2 2 2 2 2 2 2 2 2 2 2
15 15 15 15 14 13 12 11 12 12 12 12 10 9 13 9 10 9 9 7 6 5 4 3 3 3 3 2 2 2 2 2 2 3 4 3 2 2 2 1 2 2 2
15 16 16 16 15 13 13 13 13 13 13 13 11 10 9 9 9 9 7 6 5 3 4 4 3 2 2 2 1 1 2 1 1 1 1 2 1 1 2 2 2 2 2
15 15 16 17 16 14 14 14 14 14 14 13 12 11 9 9 9 9 7 5 4 5 4 4 3 2 1 2 2 1 1 1 1 1 1 1 1 2 1 2 2 2 2
15 16 16 17 16 16 15 14 14 15 14 14 13 12 11 8 9 8 7 6 5 5 4 3 3 2 1 2 1 2 9 12 6 9 1 0 1 0 1 2 2 2 2
16 16 16 17 17 16 16 15 15 15 16 15 14 13 12 11 8 7 7 6 4 4 4 3 2 1 2 1 3 10 13 12 8 11 5 0 1 1 1 1 2 2 2